Location: Unspecified
(0.0000°N, 0.0000°E)
Time: 01:57:42
(UTC+02:00)

Resurs 01 Rocket - Visible Passes

Search period start: 22 October 2014 00:00
Search period end: 31 October 2014 23:00
Orbit: 637 x 645 km, 98.2° (Epoch: 21 October)

Date Brightness Start Highest point End Pass type
(mag) Time Alt. Az. Time Alt. Az. Time Alt. Az.
22 Oct 3.3 20:24:10 10° S 20:28:17 39° WSW 20:32:23 10° NNW visible
23 Oct 5.3 07:01:52 10° ENE 07:03:54 13° ESE 07:05:55 10° SE visible
23 Oct 4.7 20:48:57 10° SSW 20:52:00 19° WSW 20:55:03 10° WNW visible
26 Oct 3.1 19:22:47 10° S 19:26:56 41° WSW 19:31:05 10° NNW visible
27 Oct 5.4 06:00:48 10° E 06:02:33 12° ESE 06:04:18 10° SE visible
27 Oct 4.6 19:47:28 10° SSW 19:50:39 20° WSW 19:53:50 10° NW visible
30 Oct 3.0 19:21:22 10° S 19:25:34 44° WSW 19:29:46 10° NNW visible
31 Oct 5.5 05:59:47 10° E 06:01:11 11° ESE 06:02:35 10° ESE visible
31 Oct 4.5 19:45:58 10° SSW 19:49:16 21° WSW 19:52:35 10° NW visible
